Tracking 19562 objects as of 22-Mar-2019
HD Live streaming from Space Station
objects crossing your sky now

COSMOS 972

Track COSMOS 972 now!
10-day predictions
COSMOS 972 is classified as:


NORAD ID: 10539
Int'l Code: 1977-123A
Perigee: 718.5 km
Apogee: 1,161.5 km
Inclination: 75.8 °
Period: 103.7 minutes
Semi major axis: 7310 km
RCS: 2.5463 m2 (large)
Launch date: December 27, 1977
Source: Commonwealth of Independent States (former USSR) (CIS)
Launch site: PLESETSK MISSILE AND SPACE COMPLEX (PKMTR)
aabbcc
Your satellite tracking list
Your tracking list is empty




NASA's NSSDC Master Catalog

Two Line Element Set (TLE):
1 10539U 77123A   19079.63718151  .00000021  00000-0  18451-4 0  9992
2 10539  75.8351 150.6591 0302944 181.5894 178.4315 13.88794069 88992
Source of the keplerian elements: AFSPC